Regional Weather Roundup
Issued by NWS Midland/Odessa, TX

Skip options and go directly to product.
Home | Oldest Version | Next Version | Current Version | All | Text Only | Save Text | Print | Product List | Glossary On

Skip product version selection by date and time.   
490
ASUS44 KMAF 021201
RWRMAF
MIDLAND AREA WEATHER ROUNDUP
NATIONAL WEATHER SERVICE MIDLAND TX
600 AM CST MON MAR 02 2015

...IN SOUTHWEST TEXAS AND SOUTHEAST NEW MEXICO...

CITY           SKY/WX    TMP DP  RH WIND       PRES   REMARKS
ALPINE         NOT AVBL
ANDREWS        CLOUDY    31  31 100 NE7       30.31S FOG     WCI  24
ARTESIA        CLOUDY    32  32 100 SE9       30.27F FOG     WCI  24
BIG SPRING     NOT AVBL
CARLSBAD       CLOUDY    34  31  88 E6        30.27S FOG     WCI  29
DRYDEN           N/A     39  37  92 N12       30.26R WCI  32
FORT STOCKTON  FOG       32  32 100 N3        30.29S VSB 1/4
GUAD PASS      NOT AVBL
HOBBS          FOG       30  30 100 E8        30.27F VSB 1/2 WCI  23
MARFA          CLOUDY    39  36  87 N9        30.20R WCI  33
MIDLAND AIRPK  NOT AVBL
MIDLAND INTL   CLOUDY    32  31  96 NE13      30.29F FOG     WCI  22
ODESSA         CLOUDY    31  29  92 NE14      30.28F FOG     WCI  21
PECOS          CLOUDY    34  33  96 NE5       30.30S FOG     WCI  30
PRESIDIO       FAIR      50  40  69 NE13      30.13R
SEMINOLE       NOT AVBL
SNYDER         NOT AVBL
WINK           CLOUDY    34  30  85 E8        30.29R WCI  27
$$
...OTHER STATIONS IN TEXAS...

CITY           SKY/WX    TMP DP  RH WIND       PRES   REMARKS
ABILENE        CLOUDY    31  29  92 N9        30.35F FOG     WCI  23
AMARILLO       CLOUDY    27  26  96 SE8       30.29R FOG     WCI  19
AUSTIN         CLOUDY    38  38 100 N13       30.32R WCI  30
BROWNSVILLE    CLOUDY    53  52  96 N10       30.19S FOG
CORPUS CHRISTI CLOUDY    48  46  93 N12       30.23S FOG
DALLAS FTW     CLOUDY    34  32  92 N10       30.37R WCI  26
DEL RIO        CLOUDY    44  42  93 NW6       30.28R FOG
EL PASO        CLOUDY    56  31  38 CALM      30.03F
HOUSTON INT    FOG       48  47  96 N9        30.26S VSB 1/4
LUBBOCK        FOG       28  27  96 E8        30.30S VSB 1   WCI  20
SAN ANGELO     CLOUDY    34  32  92 NE12      30.33R WCI  25
SAN ANTONIO    CLOUDY    42  39  89 N13       30.28R WCI  35
WACO           CLOUDY    36  35  96 N10       30.35S FOG     WCI  28
WICHITA FALLS  NOT AVBL
$$
...OTHER LOCATIONS IN NEW MEXICO...

CITY           SKY/WX    TMP DP  RH WIND       PRES   REMARKS
ALAMAGORDO     CLOUDY    48  32  53 W7        30.07R
ALBUQUERQUE    CLOUDY    37  31  78 N8        30.05F WCI  31
CANNON AFB     NOT AVBL
CLOVIS         CLOUDY    27  27 100 SE7       30.26R WCI  19
HOLLOMAN AFB   CLOUDY    51  32  48 S8        30.05R
ROSWELL        CLOUDY    33  31  92 SE8       30.27R FOG     WCI  26
RUIDOSO        FOG       30  30 100 SE8       30.18S VSB<1/4 WCI  23
SANTA FE       CLOUDY    30  23  75 SE14      30.10F WCI  19
TRUTH OR CONSE CLOUDY    56  27  32 SW5       30.03S
TUCUMCARI      CLOUDY    29  27  92 SE7       30.23S WCI  22
$$

USA.gov is the U.S. government's official web portal to all federal, state and local government web resources and services.